Content
SEND FEEDBACK

Daily
Averages
Monthly
Summary
France

LILLE, FRANCE


Home > Europe > France
Elevation: 171 feet     Latitude: 50 34N     Longitude: 003 06E

WEATHER
 
SELECT A DAY
Number of Records: 276,512;   Date Range: 7/1/96 - 10/23/14
 
SHARE

PRINT THIS DATA

[ ← Previous Day ]
WEATHER ALMANAC - JULY 23, 2013
[ Next Day → ]
[ °C ]   °F
Weather ElementAverageHighLow
Temperature75.8 °F89.6 °F (1:30 pm)66.2 °F (4:30 am)
Dewpoint59.1 °F68 °F (6:30 pm)50 °F (12:00 pm)
Humidity59.3 %83 % (6:30 pm)18 % (2:00 pm)
Barometer29.93 in29.98 in (1:00 am)29.89 in (3:00 pm)
Wind Speed4.9 mph13.8 mph (6:00 pm)
Weather ElementAverage
Visibility8.2 mi
Wind DirectionSE (139.8 °)

Weather ElementTotal
Precipitation---
Cooling Degree Days12.9 (Base 65)
Growing Degree Days27.9 (Base 50)
Averaged from 48 records on July 23, 2013
WEATHER CONDITIONS BREAKOUT
WIND DIRECTION BREAKOUT
WEATHER BY HOUR - JULY 23, 2013
[ °C ]   °F
Local TimeTemperatureDewpointHumidityBarometerVisibilityWind DirectionWind SpeedGust SpeedPrecipitationEventsConditions
1:00 AM71.6 °F55.4 °F57 %29.98 inCalmClear
2:00 AM70.0 °F56.0 °F52 %29.98 in25.0 miCalmClear
2:00 AM69.8 °F57.2 °F64 %29.98 inCalmClear
2:30 AM69.8 °F57.2 °F64 %29.95 in6.2 miVariable1.2 mph
3:00 AM68.0 °F57.2 °F68 %29.95 in6.2 miEast (80°)1.2 mph
3:30 AM68.0 °F57.2 °F68 %29.95 in6.2 miENE (60°)3.5 mph
4:00 AM68.0 °F57.2 °F68 %29.95 in6.2 miEast (90°)3.5 mph
4:30 AM66.2 °F57.2 °F73 %29.95 in6.2 miENE (60°)1.2 mph
5:00 AM66.2 °F57.2 °F73 %29.95 in6.2 miVariable1.2 mph
5:30 AM66.2 °F57.2 °F73 %29.92 inWNW (290°)3.5 mphClear
6:00 AM66.2 °F57.2 °F73 %29.92 inNorth (360°)2.3 mphClear
6:30 AM68.0 °F59.0 °F73 %29.95 inEast (90°)4.6 mphClear
7:00 AM66.2 °F57.2 °F73 %29.95 inWest (280°)6.9 mphClear
7:30 AM68.0 °F59.0 °F73 %29.95 inVariable2.3 mphClear
8:00 AM71.0 °F58.0 °F56 %29.95 in9.0 miNNW (340°)6.9 mphPartly Cloudy
8:00 AM71.6 °F59.0 °F64 %29.95 inNNW (340°)6.9 mphClear
8:30 AM73.4 °F59.0 °F61 %29.95 inNorth (10°)6.9 mphClear
9:00 AM75.2 °F59.0 °F57 %29.92 inNE (40°)5.8 mphClear
9:30 AM78.8 °F59.0 °F51 %29.92 inNE (50°)6.9 mphClear
10:00 AM80.6 °F59.0 °F48 %29.92 inENE (60°)8.1 mphClear
10:30 AM82.4 °F57.2 °F42 %29.92 inNE (50°)5.8 mphClear
11:00 AM84.2 °F55.4 °F37 %29.92 inVariable3.5 mphClear
11:30 AM86.0 °F53.6 °F33 %29.92 inVariable3.5 mphClear
12:00 PM86.0 °F50.0 °F29 %29.92 inEast (80°)4.6 mphClear
12:30 PM87.8 °F51.8 °F29 %29.92 inEast (80°)4.6 mphClear
1:00 PM87.8 °F51.8 °F29 %29.92 inVariable3.5 mphClear
1:30 PM89.6 °F53.6 °F29 %29.92 inVariable3.5 mphClear
2:00 PM89.0 °F51.0 °F18 %29.92 in31.0 miSSE (160°)2.3 mphScattered Clouds
2:00 PM89.6 °F53.6 °F29 %29.92 inNorth (360°)4.6 mphClear
2:30 PM89.6 °F53.6 °F29 %29.92 inNNW (330°)4.6 mphClear
3:00 PM89.6 °F55.4 °F31 %29.89 inVariable4.6 mphClear
3:30 PM87.8 °F55.4 °F33 %29.89 in6.2 miVariable3.5 mphMostly Cloudy
4:00 PM86.0 °F59.0 °F40 %29.89 in6.2 miENE (70°)5.8 mphMostly Cloudy
4:30 PM84.2 °F64.4 °F51 %29.89 in6.2 miSSW (200°)5.8 mphRainLight Rain
5:00 PM80.6 °F66.2 °F61 %29.89 in6.2 miSW (220°)8.1 mphRainLight Rain
5:30 PM78.8 °F66.2 °F65 %29.92 in5.6 miSSW (210°)6.9 mphRainLight Rain
6:00 PM73.4 °F66.2 °F78 %29.92 in4.3 miWSW (240°)13.8 mphRainLight Rain
6:30 PM73.4 °F68.0 °F83 %29.95 in5.0 miWSW (240°)13.8 mphRain-ThunderstormLight Thunderstorms and Rain
7:00 PM71.6 °F66.2 °F83 %29.95 in5.0 miWSW (240°)13.8 mphRain-ThunderstormLight Thunderstorms and Rain
7:30 PM71.6 °F64.4 °F78 %29.92 in6.2 miWSW (240°)10.4 mphRain-ThunderstormLight Thunderstorms and Rain
8:00 PM71.0 °F65.0 °F75 %29.90 in11.0 miWest (280°)4.6 mphRainLight Rain
8:00 PM71.6 °F64.4 °F78 %29.89 in6.2 miWest (270°)4.6 mphRainLight Rain
9:00 PM71.6 °F66.2 °F83 %29.89 inNW (310°)5.8 mphClear
9:30 PM71.6 °F66.2 °F83 %29.92 inWNW (290°)5.8 mphClear
10:00 PM69.8 °F64.4 °F83 %29.92 inWest (280°)5.8 mphClear
10:30 PM69.8 °F64.4 °F83 %29.95 in6.2 miWest (270°)5.8 mphMostly Cloudy
11:00 PM69.8 °F64.4 °F83 %29.95 in6.2 miVariable2.3 mphMostly Cloudy
11:30 PM69.8 °F64.4 °F83 %29.95 in6.2 miVariable1.2 mphRainLight Rain
Hourly data recorded from LFQQ, located miles away from Lille, France







STORIES FROM OUR PARTNERS